Regional Weather Roundup
Issued by NWS

Home | Current Version | Previous Version | Graphics & Text | Print | Product List | Glossary On
Versions: 1 2 3 4 5 6 7 8 9 10 11 12 13 14 15 16 17 18 19 20 21 22 23 24 25 26 27 28 29 30 31 32 33 34 35 36 37 38 39 40 41 42 43 44 45 46 47 48 49 50
000
ASUS43 KIND 020159
RWRIN

WEATHER ROUNDUP FOR INDIANA
NATIONAL WEATHER SERVICE INDIANAPOLIS IN
1000 PM EDT MON SEP 01 2014

NOTE: "FAIR" INDICATES FEW OR NO CLOUDS BELOW 12,000 FEET WITH NO
SIGNIFICANT WEATHER AND/OR OBSTRUCTIONS TO VISIBILITY.

* - STATION DOES NOT REPORT WEATHER SUCH AS PRECIPITATION OR FOG.

+ - STATION NOT QUALITY CONTROLLED BY THE NATIONAL WEATHER SERVICE.
    USE DATA WITH CAUTION...ESPECIALLY DEWPOINT AND RELATIVE
    HUMIDITY OBSERVATIONS.

INZ001>003-010>013-019-020-020300-
NORTHWEST INDIANA

CITY           SKY/WX    TMP DP  RH WIND       PRES   REMARKS
GARY /AIRPORT/ PTCLDY    77  66  69 SW12      29.85R
KNOX *+        CLEAR     71  65  81 SW7       29.85R
MONTICELLO +   CLEAR     71  66  84 SW6       29.88R
VALPARAISO     CLEAR     72  66  81 SW7       29.87R

$$

LMZ046-743>745-020300-
SOUTHERN LAKE MICHIGAN

STATION/POSITION TIME  TEMP WIND        PRES
                       AIR  DIR/SP/G
                 (UTC) (F)  (DEG/KT/KT) (MB)
MICHIGAN CITY    0100   77  200/ 14/ 17   N/A

$$

INZ004-005-014>016-021>024-020300-
NORTH CENTRAL INDIANA

CITY           SKY/WX    TMP DP  RH WIND       PRES   REMARKS
GOSHEN         PTCLDY    75  66  73 SW12      29.85R
SOUTH BEND     CLEAR     73  66  78 SW7       29.85R

$$

INZ006>009-017-018-025>027-020300-
NORTHEAST INDIANA

CITY           SKY/WX    TMP DP  RH WIND       PRES   REMARKS
ANGOLA *+      CLEAR     73  66  78 W9        29.86R
FORT WAYNE     PTCLDY    73  68  84 SW8       29.88R

$$

INZ028-029-035-036-043>045-051>053-020300-
WEST CENTRAL INDIANA

CITY           SKY/WX    TMP DP  RH WIND       PRES   REMARKS
GREENCASTLE +  PTCLDY    70  66  88 CALM      29.93R
LAFAYETTE      CLEAR     71  65  81 CALM      29.89R
TERRE HAUTE    CLEAR     73  66  78 S7        29.92R

$$

INZ030>032-037>040-046>048-054>057-064-065-020300-
CENTRAL INDIANA

CITY           SKY/WX    TMP DP  RH WIND       PRES   REMARKS
COLUMBUS       CLEAR     75  72  88 S12       29.92S
FRANKFORT +    CLEAR     69  65  86 SW5       29.92R
INDIANAPOLIS   PTCLDY    74  68  81 SW12      29.91R
-EAGLE CREEK   PTCLDY    75  65  70 SW7       29.91R
KOKOMO *+      PTCLDY    72  63  73 W12       29.89R
MT COMFORT *+  PTCLDY    75  75 100 SW9       29.93R
SHELBYVILLE    PTCLDY    74  70  87 S7        29.93R

$$

INZ033-034-041-042-049-050-058-059-020300-
EAST CENTRAL INDIANA

CITY           SKY/WX    TMP DP  RH WIND       PRES   REMARKS
MUNCIE         PTCLDY    76  68  76 SW8       29.91R

$$

INZ060-061-067>069-081>083-085>088-020300-
SOUTHWEST INDIANA

CITY           SKY/WX    TMP DP  RH WIND       PRES   REMARKS
EVANSVILLE     CLEAR     77  72  84 CALM      29.96R

$$

INZ062-063-066-070>080-084-089>092-020300-
SOUTH CENTRAL AND SOUTHEAST INDIANA

CITY           SKY/WX    TMP DP  RH WIND       PRES   REMARKS
BLOOMINGTON    CLEAR     73  69  87 S3        29.95R

$$




USA.gov is the U.S. government's official web portal to all federal, state and local government web resources and services.